{"data":{"norad_id":63222,"intl_designator":"2025-052N","name":"AEROCUBE 18B","alt_names":[],"object_type":"PAYLOAD","status":"ACTIVE","operator":null,"country":"US","launch_date":"2025-03-15","launch_site_code":"AFWTR","launch_vehicle":null,"mission":null,"orbit_class":"UNKNOWN","rcs_meters":null,"size_class":null,"mass_kg":null,"dimensions":null,"purposes":[],"wikipedia_slug":null,"has_3d_model":false,"image_url":null,"decayed_at":null,"tle_current":{"epoch":"2026-05-25T03:32:06.410688Z","epoch_age_seconds":65812,"freshness":"FRESH","line1":"1 63222U 25052N   26145.14729642  .00005355  00000+0  22369-3 0  9994","line2":"2 63222  97.4003  38.9046 0003893 185.7829 174.3364 15.24044997 66389","mean_motion":15.24044997,"eccentricity":0.0003893,"inclination_deg":97.4003,"raan_deg":38.9046,"arg_perigee_deg":185.7829,"mean_anomaly_deg":174.3364,"bstar":0.00022369,"rev_number":6638,"period_min":94.485399239167,"perigee_km":490.97943293267,"apogee_km":496.3298098891,"semimajor_km":6871.7916214109,"source":"CELESTRAK","updated_at":"2026-05-25T13:38:03.578199Z"}}}